This demonstration page uses our WeatherBlox Daily Observations layout. Learn more.

Hourly Observations for May 31, 2018

Temp ( °F °C ) Dew Point ( °F °C ) Humidity (%) Winds ( mph kmh ) Pressure ( in mb ) Visibility ( mi km ) Precip ( " mm )
12:15 am 00:15 Cloudy 70 21 70 21 100 100 SSE 6 9 30.03 1017 10 16.09344 0 0
12:35 am 00:35 Cloudy with Light Drizzle 70 21 70 21 100 100 SSE 7 11 30 1016 10 16.09344 0 0
12:55 am 00:55 Cloudy with Rain 68 20 68 20 100 100 SSE 7 11 30 1016 5 8.04672 0.01 0.254
1:15 am 01:15 Cloudy with Light Drizzle 68 20 68 20 100 100 SE 5 7 30 1016 4 6.437376 0 0
1:35 am 01:35 Cloudy with Mist and Fog 68 20 68 20 100 100 SE 9 15 30 1016 4 6.437376 0.01 0.254
1:55 am 01:55 Cloudy 68 20 68 20 100 100 ESE 5 7 30 1016 7 11.265408 0.01 0.254
2:15 am 02:15 Cloudy with Mist and Fog 66 19 66 19 100 100 ESE 10 17 30 1016 3 4.828032 0 0
2:35 am 02:35 Cloudy with Mist and Fog 64 18 64 18 100 100 SE 6 9 30 1016 2.5 4.02336 0 0
2:55 am 02:55 Cloudy with Mist and Fog 64 18 64 18 100 100 ESE 8 13 30 1016 2.5 4.02336 0 0
3:15 am 03:15 Cloudy with Light Rain 64 18 64 18 100 100 ESE 7 11 30 1016 2 3.218688 0 0
3:35 am 03:35 Cloudy with Mist and Fog 64 18 64 18 100 100 SE 6 9 30 1016 2.5 4.02336 0.01 0.254
3:55 am 03:55 Cloudy with Light Rain 64 18 64 18 100 100 ESE 9 15 30 1016 2.5 4.02336 0.01 0.254
4:15 am 04:15 Cloudy with Light Drizzle 64 18 64 18 100 100 ESE 6 9 30 1016 2.5 4.02336 0.01 0.254
4:35 am 04:35 Cloudy with Light Rain 64 18 64 18 100 100 ESE 7 11 29.97 1015 3 4.828032 0.01 0.254
4:55 am 04:55 Cloudy with Light Rain 64 18 64 18 100 100 ESE 6 9 29.97 1015 3 4.828032 0.02 0.508
5:15 am 05:15 Cloudy with Light Drizzle 64 18 64 18 100 100 SE 7 11 29.97 1015 7 11.265408 0 0
5:35 am 05:35 Cloudy 64 18 64 18 100 100 SE 3 6 29.97 1015 10 16.09344 0 0
5:55 am 05:55 Cloudy with Mist and Fog 64 18 64 18 100 100 SE 5 7 29.97 1015 4 6.437376 0 0
6:15 am 06:15 Cloudy with Mist and Fog 64 18 64 18 100 100 ESE 5 7 29.97 1015 2.5 4.02336 0 0
6:35 am 06:35 Cloudy with Mist and Fog 64 18 64 18 100 100 ESE 3 6 29.97 1015 2.5 4.02336 0 0
6:55 am 06:55 Cloudy with Mist and Fog 64 18 64 18 100 100 ESE 3 6 30 1016 1.75 2.816352 0 0
7:15 am 07:15 Cloudy with Mist and Fog 64 18 64 18 100 100 Calm 30 1016 2 3.218688 0 0
7:35 am 07:35 Cloudy with Mist and Fog 64 18 64 18 100 100 ESE 5 7 30 1016 2.5 4.02336 0 0
7:55 am 07:55 Cloudy with Mist and Fog 64 18 64 18 100 100 ESE 3 6 30 1016 1.75 2.816352 0 0
8:15 am 08:15 Cloudy with Mist and Fog 64 18 64 18 100 100 E 3 6 30 1016 1 1.609344 0 0
8:35 am 08:35 Cloudy with Mist and Fog 64 18 64 18 100 100 ENE 3 6 30 1016 1.5 2.414016 0 0
8:55 am 08:55 Cloudy with Mist and Fog 64 18 64 18 100 100 E 3 6 30 1016 1.25 2.01168 0 0
9:15 am 09:15 Cloudy with Mist and Fog 66 19 66 19 100 100 SE 6 9 30 1016 1.25 2.01168 0 0
9:35 am 09:35 Cloudy with Mist and Fog 66 19 66 19 100 100 ESE 6 9 30 1016 1.5 2.414016 0.01 0.254
9:55 am 09:55 Cloudy with Mist and Fog 66 19 66 19 100 100 Calm 29.97 1015 2 3.218688 0.01 0.254
10:15 am 10:15 Cloudy with Mist and Fog 68 20 68 20 100 100 SE 5 7 29.97 1015 3 4.828032 0 0
10:35 am 10:35 Cloudy with Mist and Fog 68 20 68 20 100 100 SSE 3 6 29.97 1015 5 8.04672 0 0
10:55 am 10:55 Cloudy 70 21 70 21 100 100 SE 9 15 29.97 1015 7 11.265408 0 0
11:15 am 11:15 Cloudy 70 21 70 21 100 100 SSE 7 11 29.97 1015 10 16.09344 0 0
11:35 am 11:35 Cloudy 72 22 72 22 100 100 SSE 10 17 29.97 1015 10 16.09344 0 0
11:55 am 11:55 Cloudy 72 22 72 22 100 100 S 7 11 29.97 1015 10 16.09344 0 0
12:15 pm 12:15 Cloudy 72 22 72 22 100 100 S 8 13 29.97 1015 10 16.09344 0 0
12:35 pm 12:35 Cloudy 72 22 72 22 100 100 S 7 11 29.97 1015 10 16.09344 0 0
12:55 pm 12:55 Cloudy 73 23 72 22 94 94 S 8 13 29.97 1015 10 16.09344 0 0
1:15 pm 13:15 Cloudy 77 25 72 22 83 83 S 9 15 29.94 1014 10 16.09344 0 0
1:35 pm 13:35 Mostly Cloudy 79 26 72 22 79 79 SSE 9 15 29.94 1014 10 16.09344 0 0
1:55 pm 13:55 Cloudy 79 26 72 22 79 79 SSE 10 17 29.94 1014 10 16.09344 0 0
2:15 pm 14:15 Cloudy 79 26 72 22 79 79 SSE 7 11 29.91 1013 10 16.09344 0 0
2:35 pm 14:35 Cloudy 81 27 72 22 74 74 SSE 8 13 29.91 1013 10 16.09344 0 0
2:55 pm 14:55 Cloudy 81 27 72 22 74 74 SSE 9 15 29.91 1013 10 16.09344 0 0
3:15 pm 15:15 Mostly Cloudy 82 28 72 22 70 70 SE 13 20 29.88 1012 10 16.09344 0 0
3:35 pm 15:35 Cloudy 82 28 72 22 70 70 S 9 15 29.88 1012 10 16.09344 0 0
3:55 pm 15:55 Mostly Cloudy 84 29 72 22 66 66 SE 12 19 29.88 1012 10 16.09344 0 0
4:15 pm 16:15 Mostly Cloudy with Nearby Thunderstorms 82 28 73 23 74 74 S 13 20 29.88 1012 10 16.09344 0 0
4:35 pm 16:35 Mostly Cloudy with Thunderstorms 82 28 73 23 74 74 S 12 19 29.88 1012 10 16.09344 0 0
4:55 pm 16:55 Cloudy with Nearby Thunderstorms 77 25 70 21 79 79 NW 14 22 29.91 1013 10 16.09344 0 0
5:15 pm 17:15 Cloudy with Nearby Thunderstorms 70 21 70 21 100 100 NW 13 20 29.88 1012 3 4.828032 0.08 2.032
5:35 pm 17:35 Cloudy with Heavy Thunderstorms 70 21 70 21 100 100 SSW 9 15 29.91 1013 1.25 2.01168 0.26 6.604
5:55 pm 17:55 Mostly Cloudy with Light Thunderstorms 70 21 70 21 100 100 ESE 3 6 29.88 1012 4 6.437376 0.35 8.89
6:15 pm 18:15 Mostly Cloudy with Light Rain 68 20 68 20 100 100 SSE 5 7 29.88 1012 10 16.09344 0 0
6:35 pm 18:35 Mostly Cloudy 70 21 70 21 100 100 Calm 29.88 1012 7 11.265408 0.01 0.254
6:55 pm 18:55 Partly Cloudy with Thunderstorms 70 21 70 21 100 100 SSE 3 6 29.88 1012 10 16.09344 0.01 0.254
7:15 pm 19:15 Sunny with Nearby Thunderstorms 70 21 70 21 100 100 S 3 6 29.88 1012 10 16.09344 0.01 0.254
7:35 pm 19:35 Sunny with Nearby Thunderstorms 70 21 70 21 100 100 SSE 5 7 29.88 1012 10 16.09344 0.01 0.254
8:15 pm 20:15 Cloudy 70 21 70 21 100 100 Calm 29.88 1012 10 16.09344 0 0
8:35 pm 20:35 Cloudy with Light Rain 68 20 68 20 100 100 Calm 29.88 1012 10 16.09344 0 0
8:55 pm 20:55 Cloudy with Light Rain 70 21 70 21 100 100 Calm 29.88 1012 10 16.09344 0 0
9:15 pm 21:15 Cloudy with Rain 68 20 68 20 100 100 Calm 29.88 1012 10 16.09344 0.01 0.254
9:35 pm 21:35 Cloudy with Light Rain 68 20 68 20 100 100 Calm 29.88 1012 7 11.265408 0.03 0.762
9:55 pm 21:55 Cloudy with Light Rain 68 20 68 20 100 100 Calm 29.88 1012 10 16.09344 0.03 0.762
10:15 pm 22:15 Cloudy 68 20 68 20 100 100 Calm 29.88 1012 10 16.09344 0 0
10:35 pm 22:35 Cloudy 68 20 68 20 100 100 Calm 29.88 1012 10 16.09344 0 0
10:55 pm 22:55 Cloudy with Mist and Fog 68 20 68 20 100 100 Calm 29.88 1012 5 8.04672 0 0
11:15 pm 23:15 Cloudy with Mist and Fog 68 20 68 20 100 100 Calm 29.88 1012 5 8.04672 0 0
11:35 pm 23:35 Cloudy 68 20 68 20 100 100 Calm 29.88 1012 7 11.265408 0 0
11:55 pm 23:55 Cloudy with Mist and Fog 68 20 68 20 100 100 Calm 29.88 1012 5 8.04672 0 0

Powered by AerisWeather